FW5449 Weather Reports


Display with metric or nautical units.
time (UTC)temp
F
wind
direction
speed
MPH
gust
MPH
rain 1hr
in
rain 24hr
in
rain mn
in
humidity
%
barometer
mb
20260901192551 67 203 7.0 15.0 0.00 0.00 0.00 64 1011.5
20260901192308 67 199 7.0 15.0 0.00 0.00 0.00 62 1011.4
20260901191810 66 181 7.0 12.0 0.00 0.00 0.00 62 1011.5
20260901191304 67 195 6.0 12.0 0.00 0.00 0.00 62 1011.5
20260901190547 67 188 7.0 12.0 0.00 0.00 0.00 63 1011.5
20260901190046 67 209 8.0 12.0 0.00 0.00 0.00 63 1011.5
20260901185544 66 179 6.0 12.0 0.00 0.00 0.00 65 1011.6
20260901185306 67 188 3.0 10.0 0.00 0.00 0.00 67 1011.7
20260901184543 66 171 4.0 10.0 0.00 0.00 0.00 69 1011.7
20260901184044 65 253 5.0 10.0 0.00 0.00 0.00 69 1011.7
20260901183544 64 183 5.0 9.0 0.00 0.00 0.00 70 1011.8
20260901183304 65 191 5.0 10.0 0.00 0.00 0.00 69 1011.8
20260901182542 65 250 7.0 12.0 0.00 0.00 0.00 71 1011.9
20260901182040 65 245 7.0 12.0 0.00 0.00 0.00 71 1011.7
20260901181540 65 274 6.0 10.0 0.00 0.00 0.00 71 1011.8
20260901181037 65 251 6.0 10.0 0.00 0.00 0.00 74 1011.8
20260901180537 65 226 5.0 10.0 0.00 0.00 0.00 74 1011.8
20260901180036 65 205 5.0 11.0 0.00 0.00 0.00 73 1011.8
20260901175537 65 224 6.0 13.0 0.00 0.00 0.00 73 1011.8
20260901175035 64 174 6.0 13.0 0.00 0.00 0.00 74 1011.9
20260901174536 64 210 6.0 11.0 0.00 0.00 0.00 76 1011.8
20260901174033 64 216 6.0 11.0 0.00 0.00 0.00 75 1011.8
20260901173533 63 209 5.0 11.0 0.00 0.00 0.00 76 1011.8
20260901173035 64 218 5.0 11.0 0.00 0.00 0.00 75 1011.8
20260901172532 64 200 5.0 11.0 0.00 0.00 0.00 76 1011.8
20260901172031 62 189 7.0 11.0 0.00 0.00 0.00 77 1011.8
20260901171531 62 220 7.0 11.0 0.00 0.00 0.00 78 1011.8
20260901171030 62 193 8.0 12.0 0.00 0.00 0.00 79 1011.9
20260901170530 62 214 8.0 15.0 0.00 0.00 0.00 80 1011.9
20260901170031 62 205 7.0 15.0 0.00 0.00 0.00 80 1011.8
20260901165530 62 196 6.0 10.0 0.00 0.00 0.00 80 1011.8
20260901165030 62 145 5.0 10.0 0.00 0.00 0.00 80 1011.8
20260901164530 62 196 5.0 10.0 0.00 0.00 0.00 80 1011.7
20260901164301 62 206 4.0 8.0 0.00 0.00 0.00 80 1011.7
20260901163530 62 192 4.0 9.0 0.00 0.00 0.00 80 1011.7
20260901163031 62 201 5.0 10.0 0.00 0.00 0.00 81 1011.7
20260901162530 62 189 4.0 10.0 0.00 0.00 0.00 82 1011.8
20260901162031 61 189 4.0 8.0 0.00 0.00 0.00 82 1011.8
20260901161530 61 203 4.0 8.0 0.00 0.00 0.00 82 1011.9
20260901161030 61 183 5.0 10.0 0.00 0.00 0.00 82 1011.9
20260901160530 61 153 5.0 10.0 0.00 0.00 0.00 82 1011.9
20260901160030 61 182 5.0 9.0 0.00 0.00 0.00 82 1011.9
20260901155756 60 141 4.0 9.0 0.00 0.00 0.00 82 1012.0
20260901155030 60 185 4.0 8.0 0.00 0.00 0.00 82 1012.0
20260901154531 60 178 5.0 8.0 0.00 0.00 0.00 82 1011.9
20260901154031 60 179 5.0 8.0 0.00 0.00 0.00 82 1011.9
20260901153530 60 180 4.0 8.0 0.00 0.00 0.00 83 1012.0
20260901153025 60 145 3.0 7.0 0.00 0.00 0.00 83 1011.9
20260901152523 60 170 2.0 6.0 0.00 0.00 0.00 83 1011.9
20260901152022 60 191 2.0 3.0 0.00 0.00 0.00 84 1011.8
20260901151738 60 174 2.0 4.0 0.00 0.00 0.00 84 1011.9
20260901151019 60 216 2.0 6.0 0.00 0.00 0.00 84 1011.8
20260901150733 60 186 3.0 6.0 0.00 0.00 0.00 85 1011.8
20260901150009 60 215 3.0 5.0 0.00 0.00 0.00 85 1011.8
20260901145510 59 254 3.0 6.0 0.00 0.00 0.00 85 1011.7
20260901145008 59 201 3.0 6.0 0.00 0.00 0.00 85 1011.7
20260901144504 59 232 3.0 4.0 0.00 0.00 0.00 85 1011.6
20260901144005 59 221 2.0 4.0 0.00 0.00 0.00 85 1011.7
20260901143947 59 222 3.0 4.0 0.00 0.00 0.00 86 1011.6
20260901142958 59 252 3.0 6.0 0.00 0.00 0.00 86 1011.5
20260901142458 59 237 3.0 6.0 0.00 0.00 0.00 85 1011.4
20260901141959 59 239 2.0 6.0 0.00 0.00 0.00 85 1011.5
20260901141455 59 171 3.0 7.0 0.00 0.00 0.00 85 1011.5
20260901140955 59 253 3.0 7.0 0.00 0.00 0.00 86 1011.4
20260901140452 59 189 3.0 7.0 0.00 0.00 0.00 85 1011.4
20260901135953 59 216 3.0 6.0 0.00 0.00 0.00 85 1011.5
20260901135456 59 179 2.0 6.0 0.00 0.00 0.00 85 1011.4
20260901134951 59 195 1.0 4.0 0.00 0.00 0.00 85 1011.4
20260901134453 59 239 0.0 2.0 0.00 0.00 0.00 86 1011.4
20260901134444 59 240 0.0 0.0 0.00 0.00 0.00 86 1011.3
20260901133448 59 239 0.0 0.0 0.00 0.00 0.00 86 1011.3
20260901132951 59 239 0.0 2.0 0.00 0.00 0.00 86 1011.3
20260901132441 59 239 1.0 2.0 0.00 0.00 0.00 86 1011.3
20260901132205 59 239 1.0 2.0 0.00 0.00 0.00 85 1011.2
20260901131440 59 239 2.0 4.0 0.00 0.00 0.00 86 1011.2
20260901130939 59 239 2.0 4.0 0.00 0.00 0.00 84 1011.3
20260901130438 59 219 2.0 5.0 0.00 0.00 0.00 84 1011.3
20260901125939 59 219 3.0 5.0 0.00 0.00 0.00 84 1011.3
20260901125436 59 247 3.0 5.0 0.00 0.00 0.00 83 1011.2
20260901125156 59 253 2.0 4.0 0.00 0.00 0.00 83 1011.2
20260901124432 59 253 1.0 4.0 0.00 0.00 0.00 83 1011.3
20260901123933 59 233 0.0 2.0 0.00 0.00 0.00 83 1011.1
20260901123430 60 233 0.0 2.0 0.00 0.00 0.00 83 1011.1
20260901122927 60 233 1.0 2.0 0.00 0.00 0.00 83 1011.1
20260901122414 60 233 1.0 4.0 0.00 0.00 0.00 82 1011.1
20260901121916 60 233 1.0 4.0 0.00 0.00 0.00 83 1011.1
20260901121412 59 204 1.0 3.0 0.00 0.00 0.00 82 1011.2
20260901120912 60 204 1.0 3.0 0.00 0.00 0.00 82 1011.1
20260901120413 60 204 1.0 3.0 0.00 0.00 0.00 82 1011.1
20260901115904 60 204 1.0 3.0 0.00 0.00 0.00 82 1011.2
20260901115630 60 204 1.0 3.0 0.00 0.00 0.00 83 1011.1
20260901114858 60 204 1.0 3.0 0.00 0.00 0.00 82 1011.1
20260901114350 60 204 2.0 6.0 0.00 0.00 0.00 82 1011.2
20260901113849 60 185 2.0 6.0 0.00 0.00 0.00 82 1011.1
20260901113613 59 194 2.0 4.0 0.00 0.00 0.00 82 1011.1
20260901113108 59 203 2.0 4.0 0.00 0.00 0.00 83 1011.1
20260901112347 59 216 2.0 6.0 0.00 0.00 0.00 84 1011.1
20260901111846 59 232 2.0 8.0 0.00 0.00 0.00 85 1011.1
20260901111347 59 245 2.0 8.0 0.00 0.00 0.00 86 1011.0
20260901111121 59 234 4.0 7.0 0.00 0.00 0.00 84 1011.0
20260901110343 60 215 5.0 9.0 0.00 0.00 0.00 84 1011.0
20260901105843 60 195 4.0 9.0 0.00 0.00 0.00 83 1011.0
20260901105343 60 199 3.0 7.0 0.00 0.00 0.00 80 1011.0
20260901104844 60 166 2.0 6.0 0.00 0.00 0.00 80 1011.0
20260901104339 60 216 2.0 4.0 0.00 0.00 0.00 80 1011.1
20260901103838 60 216 2.0 4.0 0.00 0.00 0.00 80 1011.0
20260901103330 60 203 2.0 4.0 0.00 0.00 0.00 80 1011.0
20260901102829 60 251 2.0 4.0 0.00 0.00 0.00 80 1011.1
20260901102330 60 221 1.0 4.0 0.00 0.00 0.00 80 1011.0
20260901102053 60 201 1.0 3.0 0.00 0.00 0.00 80 1011.0
20260901100818 60 201 2.0 7.0 0.00 0.00 0.00 80 1011.1
20260901100318 60 207 2.0 7.0 0.00 0.00 0.00 80 1011.0
20260901095819 60 205 2.0 5.0 0.00 0.00 0.00 80 1011.0
20260901095306 60 187 2.0 6.0 0.00 0.00 0.00 80 1011.0
20260901094757 60 216 2.0 6.0 0.00 0.00 0.00 80 1010.9
20260901094520 60 207 2.0 6.0 0.00 0.00 0.00 80 1011.0
20260901093752 60 177 3.0 6.0 0.00 0.00 0.00 80 1011.0
20260901093248 60 183 3.0 6.0 0.00 0.00 0.00 80 1011.0
20260901092742 60 172 3.0 5.0 0.00 0.00 0.00 80 1011.0
20260901092238 60 177 3.0 5.0 0.00 0.00 0.00 80 1011.1
20260901091732 60 181 3.0 5.0 0.00 0.00 0.00 79 1011.1
20260901091230 60 189 3.0 5.0 0.00 0.00 0.00 80 1011.1
20260901090726 60 187 3.0 5.0 0.00 0.00 0.00 80 1011.1
20260901090439 60 179 3.0 4.0 0.00 0.00 0.00 80 1011.2
20260901085723 60 131 2.0 4.0 0.00 0.00 0.00 80 1011.2
20260901085220 60 197 2.0 4.0 0.00 0.00 0.00 80 1011.2
20260901084721 60 210 3.0 8.0 0.00 0.00 0.00 80 1011.2
20260901084207 60 188 3.0 8.0 0.00 0.00 0.00 80 1011.2
20260901083708 60 211 3.0 7.0 0.00 0.00 0.00 80 1011.1
20260901083207 60 177 3.0 6.0 0.00 0.00 0.00 80 1011.1
20260901082711 60 168 3.0 7.0 0.00 0.00 0.00 80 1011.2
20260901082205 60 190 4.0 7.0 0.00 0.00 0.00 80 1011.1
20260901081706 60 187 3.0 7.0 0.00 0.00 0.00 80 1011.1
20260901081204 60 183 2.0 6.0 0.00 0.00 0.00 80 1011.1
20260901080704 60 193 2.0 6.0 0.00 0.00 0.00 80 1011.0
20260901080205 60 179 2.0 4.0 0.00 0.00 0.00 80 1011.0
20260901075654 60 211 2.0 6.0 0.00 0.00 0.00 81 1011.0
20260901075150 59 197 3.0 6.0 0.00 0.00 0.00 80 1010.9
20260901074647 59 188 3.0 5.0 0.00 0.00 0.00 80 1010.9
20260901074410 59 165 3.0 5.0 0.00 0.00 0.00 81 1010.8
20260901073638 59 172 3.0 5.0 0.00 0.00 0.00 80 1010.8
20260901073347 59 151 3.0 5.0 0.00 0.00 0.00 81 1010.8
20260901072607 59 172 3.0 5.0 0.00 0.00 0.00 81 1010.8
20260901072102 59 158 3.0 6.0 0.00 0.00 0.00 81 1010.8
20260901071825 59 186 4.0 6.0 0.00 0.00 0.00 81 1010.8
20260901071101 59 161 4.0 7.0 0.00 0.00 0.00 81 1010.8
20260901070553 59 165 4.0 7.0 0.00 0.00 0.00 82 1010.8
20260901070316 58 172 3.0 7.0 0.00 0.00 0.00 82 1010.8
20260901065553 58 188 3.0 7.0 0.00 0.00 0.00 82 1010.9
20260901065053 58 170 3.0 7.0 0.00 0.00 0.00 82 1010.9
20260901064549 58 182 3.0 7.0 0.00 0.00 0.00 83 1010.8
20260901064050 58 178 4.0 6.0 0.00 0.00 0.00 83 1010.8
20260901063548 58 158 3.0 6.0 0.00 0.00 0.00 83 1010.9
20260901063049 58 175 3.0 5.0 0.00 0.00 0.00 83 1010.8
20260901062549 58 147 3.0 6.0 0.00 0.00 0.00 83 1010.9
20260901062053 58 141 3.0 6.0 0.00 0.00 0.00 83 1010.9
20260901061546 58 193 3.0 8.0 0.00 0.00 0.00 83 1010.9
20260901061045 58 198 4.0 8.0 0.00 0.00 0.00 82 1011.0
20260901060543 58 187 4.0 9.0 0.00 0.00 0.00 82 1011.0
20260901060042 58 216 4.0 9.0 0.00 0.00 0.00 83 1010.9
20260901055806 58 194 5.0 8.0 0.00 0.00 0.00 83 1010.9
20260901055040 58 191 4.0 8.0 0.00 0.00 0.00 82 1011.0
20260901054541 58 202 4.0 9.0 0.00 0.00 0.00 82 1011.0
20260901054301 58 233 4.0 9.0 0.00 0.00 0.00 82 1011.0
20260901053758 58 228 4.0 9.0 0.00 0.00 0.00 82 1011.0
20260901053038 58 259 5.0 9.0 0.00 0.00 0.00 82 1011.0
20260901052537 59 251 5.0 9.0 0.00 0.00 0.00 82 1010.9
20260901052038 59 216 5.0 9.0 0.00 0.00 0.00 82 1010.9
20260901051536 59 202 5.0 9.0 0.00 0.00 0.00 81 1010.8
20260901051036 59 243 6.0 10.0 0.00 0.00 0.00 81 1010.9
20260901050532 59 174 5.0 10.0 0.00 0.00 0.00 81 1010.8
20260901050035 59 244 5.0 9.0 0.00 0.00 0.00 81 1010.9
20260901045532 59 216 6.0 12.0 0.00 0.00 0.00 81 1010.8
20260901045255 59 171 7.0 12.0 0.00 0.00 0.00 81 1010.6
20260901044532 59 245 8.0 13.0 0.00 0.00 0.00 80 1010.5
20260901044253 60 247 10.0 18.0 0.00 0.00 0.00 80 1010.6
20260901043532 60 269 11.0 18.0 0.00 0.00 0.00 80 1010.4
20260901043032 60 236 12.0 17.0 0.00 0.00 0.00 79 1010.1
20260901042532 60 244 11.0 15.0 0.00 0.00 0.00 79 1010.0
20260901042257 60 253 9.0 14.0 0.00 0.00 0.00 78 1010.2
20260901041533 60 259 8.0 13.0 0.00 0.00 0.00 78 1010.1
20260901041034 61 237 10.0 18.0 0.00 0.00 0.00 77 1010.1
20260901040533 61 230 12.0 18.0 0.00 0.00 0.00 76 1009.9
20260901040026 62 253 10.0 17.0 0.00 0.00 0.00 76 1009.9
20260901035528 62 236 7.0 13.0 0.00 0.00 0.00 74 1009.8
20260901035026 63 255 6.0 13.0 0.00 0.00 0.00 73 1009.8
20260901034517 63 259 5.0 12.0 0.00 0.00 0.00 72 1009.6
20260901034019 63 307 4.0 12.0 0.00 0.00 0.00 71 1009.3
20260901033518 64 251 5.0 12.0 0.00 0.00 0.00 71 1009.2
20260901033238 64 261 4.0 12.0 0.00 0.00 0.00 70 1009.1
20260901032515 64 248 5.0 14.0 0.00 0.00 0.00 69 1008.9
20260901032015 65 235 8.0 15.0 0.00 0.00 0.00 69 1008.8
20260901031736 65 245 11.0 17.0 0.00 0.00 0.00 68 1008.5
20260901031012 66 247 13.0 19.0 0.00 0.00 0.00 67 1008.3
20260901030510 66 241 13.0 19.0 0.00 0.00 0.00 66 1008.3
20260901030007 67 243 13.0 22.0 0.00 0.00 0.00 66 1008.2
20260901025509 67 222 13.0 22.0 0.00 0.00 0.00 65 1008.1
20260901025006 68 259 14.0 21.0 0.00 0.00 0.00 64 1008.2
20260901024457 68 238 14.0 21.0 0.00 0.00 0.00 63 1008.1
20260901023956 69 263 13.0 20.0 0.00 0.00 0.00 62 1008.0
20260901023454 69 257 14.0 21.0 0.00 0.00 0.00 62 1007.9
20260901022952 70 256 14.0 21.0 0.00 0.00 0.00 60 1007.9
20260901022945 70 251 13.0 20.0 0.00 0.00 0.00 60 1007.9
20260901021953 71 254 14.0 20.0 0.00 0.00 0.00 59 1007.8
20260901021450 71 262 14.0 20.0 0.00 0.00 0.00 58 1007.7
20260901020950 71 239 13.0 19.0 0.00 0.00 0.00 58 1007.6
20260901020449 71 223 13.0 19.0 0.00 0.00 0.00 58 1007.6
20260901020213 72 245 13.0 20.0 0.00 0.00 0.00 57 1007.5
20260901015706 72 219 13.0 20.0 0.00 0.00 0.00 57 1007.4
20260901014946 72 281 13.0 18.0 0.00 0.00 0.00 57 1007.5
20260901014445 73 253 12.0 18.0 0.00 0.00 0.00 56 1007.4
20260901013945 73 266 10.0 17.0 0.00 0.00 0.00 56 1007.4
20260901013446 74 281 10.0 17.0 0.00 0.00 0.00 56 1007.4
20260901012944 75 273 10.0 19.0 0.00 0.00 0.00 55 1007.3
20260901012443 76 249 11.0 19.0 0.00 0.00 0.00 54 1007.2
20260901012204 76 281 11.0 17.0 0.00 0.00 0.00 53 1007.3
20260901011442 76 256 12.0 17.0 0.00 0.00 0.00 53 1007.3
20260901010941 77 241 11.0 19.0 0.00 0.00 0.00 52 1007.3
20260901010439 77 253 11.0 19.0 0.00 0.00 0.00 52 1007.2
20260901005939 78 281 11.0 19.0 0.00 0.00 0.00 52 1007.2
20260901005437 78 252 12.0 20.0 0.00 0.00 0.00 51 1007.2
20260901004939 79 247 12.0 20.0 0.00 0.00 0.00 50 1007.0
20260901004440 80 237 11.0 16.0 0.00 0.00 0.00 50 1007.1
20260901003938 80 263 11.0 16.0 0.00 0.00 0.00 50 1007.1
20260901003437 80 264 12.0 20.0 0.00 0.00 0.00 49 1007.0
20260901003158 80 281 13.0 22.0 0.00 0.00 0.00 49 1007.0
20260901002433 80 229 14.0 22.0 0.00 0.00 0.00 49 1006.9
20260901001934 81 253 14.0 23.0 0.00 0.00 0.00 48 1006.8
20260901001434 82 243 13.0 23.0 0.00 0.00 0.00 47 1006.8
20260901000934 83 245 13.0 20.0 0.00 0.00 0.00 46 1006.7
20260901000652 84 262 12.0 20.0 0.00 0.00 0.00 45 1006.7
20260831235931 84 259 9.0 20.0 0.00 0.00 0.00 43 1006.7
20260831235432 86 291 8.0 16.0 0.00 0.00 0.00 42 1006.6
20260831235149 85 281 6.0 13.0 0.00 0.00 0.00 42 1006.6
20260831234652 86 291 6.0 14.0 0.00 0.00 0.00 42 1006.6
20260831233932 87 332 7.0 14.0 0.00 0.00 0.00 41 1006.6
20260831233425 86 258 6.0 12.0 0.00 0.00 0.00 40 1006.6
20260831232923 86 309 6.0 11.0 0.00 0.00 0.00 42 1006.7
20260831232424 85 307 5.0 11.0 0.00 0.00 0.00 43 1006.7
20260831231916 86 332 4.0 10.0 0.00 0.00 0.00 43 1006.7
20260831231415 86 297 5.0 10.0 0.00 0.00 0.00 42 1006.7
20260831230914 85 312 5.0 10.0 0.00 0.00 0.00 42 1006.8
20260831230627 85 249 4.0 10.0 0.00 0.00 0.00 43 1006.9
20260831225905 85 338 4.0 8.0 0.00 0.00 0.00 42 1007.0
20260831225407 85 0 4.0 9.0 0.00 0.00 0.00 45 1007.0
20260831224907 85 343 4.0 9.0 0.00 0.00 0.00 42 1007.0
20260831224402 85 304 3.0 9.0 0.00 0.00 0.00 46 1007.0
20260831224128 84 59 4.0 9.0 0.00 0.00 0.00 42 1007.1
20260831223403 84 346 4.0 12.0 0.00 0.00 0.00 44 1007.1
20260831222901 84 353 4.0 12.0 0.00 0.00 0.00 44 1007.2
20260831222402 83 328 4.0 10.0 0.00 0.00 0.00 45 1007.3
20260831222124 84 18 4.0 9.0 0.00 0.00 0.00 45 1007.2
20260831221401 84 324 5.0 10.0 0.00 0.00 0.00 47 1007.5
20260831220901 83 299 5.0 10.0 0.00 0.00 0.00 46 1007.5
20260831220402 83 291 4.0 10.0 0.00 0.00 0.00 46 1007.6
20260831215859 83 3 4.0 8.0 0.00 0.00 0.00 46 1007.6
20260831215400 82 8 4.0 8.0 0.00 0.00 0.00 49 1007.8
20260831215340 82 313 4.0 9.0 0.00 0.00 0.00 47 1007.8
20260831214357 82 273 4.0 9.0 0.00 0.00 0.00 48 1007.9
20260831213857 82 310 4.0 9.0 0.00 0.00 0.00 48 1007.7
20260831213357 81 14 3.0 8.0 0.00 0.00 0.00 47 1007.9
20260831212855 80 281 3.0 8.0 0.00 0.00 0.00 46 1008.0
20260831212359 80 324 4.0 8.0 0.00 0.00 0.00 51 1008.1
20260831211842 80 291 4.0 12.0 0.00 0.00 0.00 47 1008.1
20260831211340 80 300 2.0 12.0 0.00 0.00 0.00 49 1008.2
20260831210832 79 170 2.0 7.0 0.00 0.00 0.00 48 1008.1
20260831210554 79 291 3.0 7.0 0.00 0.00 0.00 47 1008.2
20260831205834 78 18 2.0 7.0 0.00 0.00 0.00 48 1008.2
20260831205551 78 35 2.0 8.0 0.00 0.00 0.00 49 1008.2
20260831204828 78 342 3.0 8.0 0.00 0.00 0.00 51 1008.3
20260831204325 78 39 3.0 7.0 0.00 0.00 0.00 48 1008.3
20260831204047 79 320 4.0 10.0 0.00 0.00 0.00 49 1008.4
20260831203323 78 317 4.0 10.0 0.00 0.00 0.00 53 1008.3
20260831202821 79 60 3.0 7.0 0.00 0.00 0.00 51 1008.5
20260831202534 77 339 3.0 8.0 0.00 0.00 0.00 54 1008.7
20260831201818 76 64 3.0 8.0 0.00 0.00 0.00 50 1008.7
20260831201534 76 36 2.0 7.0 0.00 0.00 0.00 50 1008.6
20260831200812 77 106 2.0 7.0 0.00 0.00 0.00 50 1008.6
20260831200754 77 347 3.0 7.0 0.00 0.00 0.00 53 1008.8
20260831195811 75 342 2.0 8.0 0.00 0.00 0.00 54 1008.9
20260831195313 75 344 2.0 8.0 0.00 0.00 0.00 54 1009.0
20260831194810 74 274 3.0 9.0 0.00 0.00 0.00 54 1009.1
20260831194308 75 96 2.0 9.0 0.00 0.00 0.00 54 1009.2
20260831193809 75 316 2.0 7.0 0.00 0.00 0.00 57 1009.1
20260831193307 75 335 2.0 9.0 0.00 0.00 0.00 57 1009.2
20260831193040 73 52 3.0 9.0 0.00 0.00 0.00 56 1009.3